DELTA 1 DEB, 7039

Orbit data source: Space-Track

DELTA 1 DEB, 7039 is space debris in SSO originally from a launch on Tue, 06 Nov 1973 UTC launched from the Air Force Western Test Range (AFWTR). Debris objects in space refer to the collection of defunct objects orbiting the Earth. Examples of debris include non-operational satellites, rocket bodies, and fragments generated from explosions, collisions, or faulty payload assembly.

Loading next visibility...
Identifier
7039, 1973-086AF
Orbit
SSO
Country
Flag of USUS
Related business
Manufacturer
Unknown
Mission
Spacecraft
Bus & Motor
Unknown
Mass
Unknown
Launch date (UTC)
1973-11-06 (52 years ago)
Launch vehicle
Unknown
Launch site
Air Force Western Test Range (AFWTR)
Object type
Payload
Rocket body
Debris
Shape & HBR
Unknown shape, 0.1 m
Radar Cross Section
Medium (>0.1 m² and <1 m²)

Expand to show TLE details & history
Last TLE update: 1 day ago

TLE from 1 day ago
0 DELTA 1 DEB
1 07039U 73086AF  25312.21774792  .00000049  00000-0  62809-3 0  9996
2 07039 102.5339 298.4185 0130710 343.6969  45.0321 12.49573075369515
Epoch: 2025-11-08T05:13Z
TLE epoch observation values (Epoch: 2025-11-08T05:13:33.420Z)
Latitude
29.0687°
Longitude
165.31533°
Altitude
1,397.774 km
Speed
7.196 km/s
True Right ascension
19h 25m 25s
True Declination
28° 56' 06"
Sunlit
Object was in daylight at epoch
Visualization orbit readout
Latitude
Unknown
Longitude
Unknown
Altitude
Unknown
Speed
Unknown
Apparent Right ascension
Unknown
Apparent Declination
Unknown
Sunlit
N/A
Visualization observer readout
Local Sidereal Time
01:15:59
Azimuth
Unknown
Elevation
Unknown
Doppler factor
Unknown
Orbital elements
Apogee altitude
1,566.378 km
Perigee altitude
1,361.372 km
Semi-major axis
7,842.012 km
Eccentricity
0.01307
Inclination
102.5339°
RAAN
298.4185°
Arg. of periapsis
343.6969°
True anomaly
46.10413°
Mean anomaly
45.0321°
Eccentric anomaly
45.56687°
Mean motion
3.12537 °/min
Orbital period
115.19 mins
BSTAR
0.00062809
Loading maneuver chart data...
Computing Atmospheric mass density...
Loading historical data...
Loading historical data...
Loading historical data...
Loading historical data...
Loading historical data...
Loading historical data...
Loading historical data...

Documentation

Showing up to 5 results
|